Simultaneous Nadir Overpasses (SNOs) Predictions

Prediction of SNOs between AQUA and METOP-C Satellite Orbit:

Table of predicted SNOs for the next 14.0 days since TLE Epoch: 1/16/2021
Index Date (AQUA) Time (AQUA) Lat,Lon (AQUA) SZA (AQUA ) Date (METOP-C) Time (METOP-C) Lat,Lon (METOP-C) SZA (METOP-C ) Distance(km) Time Diff (sec)
1 01/17/2021 18:17:25 -73.35, 80.81 86.03 01/17/2021 18:16:15 -73.31, 79.45 86.01 43.83 70
2 01/17/2021 19:06:59 73.70,-112.30 94.34 01/17/2021 19:06:47 73.68,-112.35 94.33 2.64 12
3 01/17/2021 19:56:26 -73.76, 55.21 85.60 01/17/2021 19:57:27 -73.78, 55.21 85.59 2.29 61
4 01/20/2021 13:51:45 -73.64, 146.65 86.31 01/20/2021 13:50:32 -73.61, 146.54 86.32 4.45 73
5 01/20/2021 14:41:14 73.74, -45.93 93.79 01/20/2021 14:41:09 73.73, -45.84 93.78 2.85 5
6 01/20/2021 15:30:41 -73.79, 121.59 86.16 01/20/2021 15:31:50 -73.79, 121.62 86.18 0.93 69
7 01/23/2021 09:26:00 -73.67,-146.98 86.91 01/23/2021 09:24:54 -73.66,-146.93 86.91 1.88 66
8 01/23/2021 10:15:28 73.72, 20.54 93.14 01/23/2021 10:15:32 73.72, 20.55 93.14 0.28 4
9 01/23/2021 11:04:58 -73.93,-172.26 86.65 01/23/2021 11:06:10 -73.94,-171.61 86.68 20.28 72
10 01/26/2021 05:00:13 -73.66, -80.51 87.61 01/26/2021 04:59:16 -73.66, -80.52 87.60 0.64 57
11 01/26/2021 05:49:41 73.72, 87.00 92.45 01/26/2021 05:49:54 73.71, 86.94 92.45 1.96 13
12 01/26/2021 06:39:18 -74.27,-106.62 86.96 01/26/2021 06:40:25 -74.28,-104.34 87.05 68.54 67
13 01/29/2021 00:34:27 -73.65, -14.05 88.35 01/29/2021 00:33:39 -73.66, -14.12 88.33 2.37 48
14 01/29/2021 01:23:56 73.77, 153.34 91.77 01/29/2021 01:24:16 73.75, 153.44 91.75 3.55 20



Historial Predications of SNOs between AQUA and METOP-C
